N9XRG Weather Reports


Display with metric or nautical units.
time (UTC)temp
F
wind
direction
speed
MPH
gust
MPH
rain 1hr
in
rain 24hr
in
rain mn
in
humidity
%
barometer
mb
20260504232908 72 151 2.0 5.0 0.00 0.00 0.00 54 1001.8
20260504232405 72 127 3.0 7.0 0.00 0.00 0.00 54 1001.9
20260504231902 72 192 8.0 12.0 0.00 0.00 0.00 53 1001.9
20260504231358 72 178 3.0 6.0 0.00 0.00 0.00 53 1001.9
20260504230854 72 135 3.0 11.0 0.00 0.00 0.00 52 1001.9
20260504230352 73 46 4.0 6.0 0.00 0.00 0.00 51 1002.1
20260504225850 73 145 6.0 8.0 0.00 0.00 0.00 50 1002.1
20260504225346 73 141 4.0 5.0 0.00 0.00 0.00 49 1002.1
20260504224844 73 104 1.0 6.0 0.00 0.00 0.00 49 1002.2
20260504224341 73 141 2.0 8.0 0.00 0.00 0.00 49 1002.3
20260504223838 73 125 3.0 12.0 0.00 0.00 0.00 48 1002.4
20260504223333 73 122 3.0 6.0 0.00 0.00 0.00 47 1002.5
20260504222830 74 127 5.0 6.0 0.00 0.00 0.00 46 1002.5
20260504222327 74 132 5.0 5.0 0.00 0.00 0.00 45 1002.4
20260504221825 75 131 2.0 10.0 0.00 0.00 0.00 45 1002.5
20260504221321 75 96 4.0 9.0 0.00 0.00 0.00 44 1002.5
20260504220819 75 40 2.0 9.0 0.00 0.00 0.00 44 1002.4
20260504220315 75 146 6.0 6.0 0.00 0.00 0.00 43 1002.4
20260504215813 75 100 5.0 14.0 0.00 0.00 0.00 42 1002.3
20260504215309 76 121 3.0 6.0 0.00 0.00 0.00 43 1002.1
20260504214805 76 69 3.0 12.0 0.00 0.00 0.00 43 1002.1
20260504214302 76 151 5.0 10.0 0.00 0.00 0.00 43 1002.1
20260504213758 77 132 5.0 10.0 0.00 0.00 0.00 43 1002.2
20260504213254 77 63 3.0 10.0 0.00 0.00 0.00 43 1002.1
20260504212752 76 79 3.0 6.0 0.00 0.00 0.00 43 1002.2
20260504212248 77 145 6.0 9.0 0.00 0.00 0.00 42 1002.1
20260504211746 77 113 6.0 12.0 0.00 0.00 0.00 42 1002.1
20260504211242 77 135 5.0 12.0 0.00 0.00 0.00 40 1001.9
20260504210739 77 70 2.0 8.0 0.00 0.00 0.00 42 1002.1
20260504210236 78 125 8.0 11.0 0.00 0.00 0.00 40 1002.0
20260504205733 79 219 3.0 9.0 0.00 0.00 0.00 40 1002.1
20260504205231 79 74 0.0 4.0 0.00 0.00 0.00 42 1002.0
20260504204729 79 128 4.0 7.0 0.00 0.00 0.00 42 1002.4
20260504204227 78 108 3.0 5.0 0.00 0.00 0.00 45 1002.1
20260504203726 78 119 1.0 6.0 0.00 0.00 0.00 44 1002.1
20260504203223 78 79 2.0 8.0 0.00 0.00 0.00 42 1002.0
20260504202723 78 130 3.0 11.0 0.00 0.00 0.00 43 1001.9
20260504202221 78 174 3.0 9.0 0.00 0.00 0.00 42 1002.0
20260504201718 78 156 1.0 6.0 0.00 0.00 0.00 43 1002.1
20260504201215 78 168 4.0 7.0 0.00 0.00 0.00 43 1002.1
20260504200712 78 114 4.0 7.0 0.00 0.00 0.00 43 1002.2
20260504200208 78 132 2.0 9.0 0.00 0.00 0.00 43 1002.2
20260504195705 78 159 2.0 9.0 0.00 0.00 0.00 42 1002.3
20260504195201 79 216 2.0 8.0 0.00 0.00 0.00 43 1002.4
20260504194658 78 102 3.0 8.0 0.00 0.00 0.00 43 1002.5
20260504194154 77 151 2.0 5.0 0.00 0.00 0.00 45 1002.5
20260504193650 78 124 6.0 6.0 0.00 0.00 0.00 44 1002.8
20260504193148 78 154 8.0 12.0 0.00 0.00 0.00 44 1002.7
20260504192646 77 150 3.0 6.0 0.00 0.00 0.00 44 1002.6
20260504192144 78 68 4.0 8.0 0.00 0.00 0.00 43 1002.8
20260504191642 79 97 2.0 9.0 0.00 0.00 0.00 45 1002.6
20260504191138 78 177 3.0 6.0 0.00 0.00 0.00 44 1002.6
20260504190634 78 65 2.0 4.0 0.00 0.00 0.00 45 1002.8
20260504190131 78 158 2.0 7.0 0.00 0.00 0.00 44 1002.6
20260504185627 78 170 2.0 6.0 0.00 0.00 0.00 47 1002.6
20260504185124 78 72 2.0 7.0 0.00 0.00 0.00 47 1002.7
20260504184620 78 99 3.0 6.0 0.00 0.00 0.00 47 1002.9
20260504184115 76 156 4.0 11.0 0.00 0.00 0.00 46 1002.8
20260504183613 76 157 6.0 8.0 0.00 0.00 0.00 47 1002.9
20260504183110 77 68 2.0 5.0 0.00 0.00 0.00 47 1003.1
20260504182608 77 83 3.0 11.0 0.00 0.00 0.00 45 1002.9
20260504182105 77 141 2.0 7.0 0.00 0.00 0.00 45 1003.1
20260504181602 78 169 5.0 6.0 0.00 0.00 0.00 46 1003.2
20260504181100 77 140 5.0 7.0 0.00 0.00 0.00 47 1003.1
20260504180558 76 131 4.0 7.0 0.00 0.00 0.00 49 1003.2
20260504180057 77 151 5.0 9.0 0.00 0.00 0.00 47 1003.3
20260504175554 76 162 5.0 8.0 0.00 0.00 0.00 48 1003.0
20260504175050 76 145 4.0 8.0 0.00 0.00 0.00 49 1003.3
20260504174549 76 165 4.0 12.0 0.00 0.00 0.00 49 1003.2
20260504174045 77 173 4.0 7.0 0.00 0.00 0.00 47 1003.2
20260504173542 76 173 3.0 6.0 0.00 0.00 0.00 49 1003.6
20260504173040 76 174 5.0 7.0 0.00 0.00 0.00 48 1003.5
20260504172535 75 163 2.0 7.0 0.00 0.00 0.00 50 1003.8
20260504172032 75 151 5.0 14.0 0.00 0.00 0.00 48 1003.7
20260504171529 74 173 3.0 7.0 0.00 0.00 0.00 50 1003.7
20260504171026 75 89 1.0 6.0 0.00 0.00 0.00 49 1003.8
20260504170522 74 171 1.0 9.0 0.00 0.00 0.00 49 1004.1
20260504160442 72 141 1.0 6.0 0.00 0.00 0.00 52 1004.9
20260504150906 71 113 2.0 4.0 0.00 0.00 0.00 53 1005.4
20260504150402 71 148 4.0 6.0 0.00 0.00 0.00 51 1005.5
20260504141332 66 115 3.0 8.0 0.00 0.00 0.00 55 1006.0
20260504140829 66 129 2.0 4.0 0.00 0.00 0.00 56 1006.1
20260504140325 66 77 2.0 4.0 0.00 0.00 0.00 57 1006.0
20260504130754 60 110 2.0 5.0 0.00 0.00 0.00 62 1006.3
20260504130250 60 130 2.0 8.0 0.00 0.00 0.00 62 1006.1
20260504120214 53 143 4.0 5.0 0.00 0.00 0.00 73 1006.9
20260504110641 49 109 3.0 4.0 0.00 0.00 0.00 80 1006.5
20260504110137 48 120 0.0 3.0 0.00 0.00 0.00 80 1006.7
20260504100557 49 129 3.0 6.0 0.00 0.00 0.00 79 1006.8
20260504081950 44 115 3.0 3.0 0.00 0.00 0.00 91 1007.1
20260504081448 44 111 2.0 3.0 0.00 0.00 0.00 92 1007.2
20260504080943 44 109 2.0 3.0 0.00 0.00 0.00 92 1007.4
20260504080440 43 107 2.0 3.0 0.00 0.00 0.00 93 1007.4
20260504070408 42 95 2.0 3.0 0.00 0.00 0.00 93 1007.9
20260504050254 46 94 2.0 3.0 0.00 0.00 0.00 84 1009.2
20260504045751 46 101 2.0 2.0 0.00 0.00 0.00 84 1009.2
20260504045250 47 109 2.0 3.0 0.00 0.00 0.00 83 1009.3
20260504044748 47 89 1.0 3.0 0.00 0.00 0.00 83 1009.2
20260504044246 46 65 2.0 4.0 0.00 0.00 0.00 84 1009.2
20260504043743 46 109 2.0 3.0 0.00 0.00 0.00 84 1009.2
20260504043239 46 132 2.0 3.0 0.00 0.00 0.00 84 1009.4
20260504042737 46 96 1.0 2.0 0.00 0.00 0.00 84 1009.3
20260504042233 46 82 2.0 2.0 0.00 0.00 0.00 84 1009.4
20260504041730 46 99 2.0 3.0 0.00 0.00 0.00 83 1009.4
20260504041226 47 109 2.0 3.0 0.00 0.00 0.00 83 1009.6
20260504040722 47 64 2.0 2.0 0.00 0.00 0.00 82 1009.7
20260504040219 48 66 2.0 3.0 0.00 0.00 0.00 81 1009.6
20260504035716 48 96 2.0 3.0 0.00 0.00 0.00 81 1009.4
20260504035213 48 96 2.0 2.0 0.00 0.00 0.00 80 1009.7
20260504034710 48 101 1.0 4.0 0.00 0.00 0.00 80 1009.6
20260504034208 48 102 3.0 3.0 0.00 0.00 0.00 80 1009.8
20260504033705 48 97 2.0 3.0 0.00 0.00 0.00 80 1009.9
20260504033202 48 137 4.0 4.0 0.00 0.00 0.00 81 1009.9
20260504032659 48 94 2.0 3.0 0.00 0.00 0.00 81 1010.0
20260504032156 48 93 2.0 3.0 0.00 0.00 0.00 81 1010.1
20260504031653 47 109 2.0 3.0 0.00 0.00 0.00 83 1010.0
20260504031149 47 94 2.0 3.0 0.00 0.00 0.00 83 1010.0
20260504030646 47 107 5.0 5.0 0.00 0.00 0.00 83 1010.1
20260504030143 47 95 2.0 3.0 0.00 0.00 0.00 83 1010.2
20260504025640 46 86 2.0 3.0 0.00 0.00 0.00 83 1010.1
20260504025136 46 86 2.0 3.0 0.00 0.00 0.00 84 1010.2
20260504024634 47 82 2.0 3.0 0.00 0.00 0.00 83 1010.3
20260504024130 47 115 1.0 2.0 0.00 0.00 0.00 83 1010.2
20260504023627 47 78 2.0 3.0 0.00 0.00 0.00 82 1010.3
20260504023123 47 72 2.0 2.0 0.00 0.00 0.00 82 1010.4
20260504022619 47 86 2.0 2.0 0.00 0.00 0.00 82 1010.3
20260504022115 47 86 2.0 2.0 0.00 0.00 0.00 82 1010.5
20260504021614 47 91 2.0 2.0 0.00 0.00 0.00 81 1010.3
20260504021110 48 77 2.0 3.0 0.00 0.00 0.00 81 1010.2
20260504020607 48 57 2.0 3.0 0.00 0.00 0.00 80 1010.2
20260504020103 48 142 3.0 3.0 0.00 0.00 0.00 81 1010.6
20260504015600 48 115 3.0 4.0 0.00 0.00 0.00 81 1010.2
20260504015055 48 84 2.0 3.0 0.00 0.00 0.00 80 1010.4
20260504014552 49 99 2.0 3.0 0.00 0.00 0.00 80 1010.4
20260504014049 49 88 2.0 3.0 0.00 0.00 0.00 79 1010.5
20260504013547 49 98 2.0 3.0 0.00 0.00 0.00 78 1010.4
20260504013044 50 109 2.0 3.0 0.00 0.00 0.00 78 1010.3
20260504012541 50 108 2.0 4.0 0.00 0.00 0.00 78 1010.4
20260504012039 50 126 2.0 3.0 0.00 0.00 0.00 77 1010.2
20260504011535 50 113 2.0 5.0 0.00 0.00 0.00 77 1010.4
20260504011031 50 113 2.0 4.0 0.00 0.00 0.00 77 1010.3
20260504010527 50 138 4.0 4.0 0.00 0.00 0.00 77 1010.4
20260504010023 50 92 2.0 4.0 0.00 0.00 0.00 76 1010.6
20260504005520 50 125 3.0 3.0 0.00 0.00 0.00 76 1010.4
20260504005018 50 123 2.0 4.0 0.00 0.00 0.00 74 1010.5
20260504004516 50 138 2.0 4.0 0.00 0.00 0.00 73 1010.5
20260504004012 50 121 2.0 3.0 0.00 0.00 0.00 74 1010.4
20260504003508 50 116 2.0 4.0 0.00 0.00 0.00 74 1010.6
20260504003006 51 120 2.0 6.0 0.00 0.00 0.00 73 1010.5
20260504002502 51 89 0.0 4.0 0.00 0.00 0.00 74 1010.6
20260504001959 51 125 2.0 5.0 0.00 0.00 0.00 73 1010.6
20260504001457 51 101 1.0 5.0 0.00 0.00 0.00 73 1010.5
20260504000953 51 114 3.0 4.0 0.00 0.00 0.00 74 1010.6
20260504000450 51 97 2.0 3.0 0.00 0.00 0.00 74 1010.7
20260503235948 51 122 2.0 4.0 0.00 0.00 0.00 74 1010.9
20260503235445 51 135 2.0 3.0 0.00 0.00 0.00 74 1010.8
20260503234942 51 110 2.0 3.0 0.00 0.00 0.00 73 1011.0
20260503234440 51 146 3.0 3.0 0.00 0.00 0.00 75 1011.2
20260503233938 51 139 5.0 6.0 0.00 0.00 0.00 74 1010.9
20260503233434 51 100 3.0 4.0 0.00 0.00 0.00 74 1011.0